Powrót do katalogu

COSMOS 2143 DEB

AktywnyPO
NORAD 57720·DEBRIS·🇷🇺 Russia

Wystrzelony May 16, 1991 z Plesetsk Cosmodrome

Loading…

Następne Przeloty (najbliższe 24 godziny)

TLE

ŚwieżeSource: Space-Track

Epoka: Sep 14, 2026, 12:34 UTC

1 57720U 91033H   26257.52367609  .00000353  00000-0  23697-2 0  9997
2 57720  82.7075 291.1079 0174001 352.9952   6.8698 12.42186707140469

Śledź COSMOS 2143 DEB w czasie rzeczywistym z AllMySat

Download on the App Store